Location: Newark
(54.2500°N, 9.1833°E)
Time: 06:30:21
(UTC+00:00)

Transit 4A - Pass Details

Date: 17 December 2019
Orbit: 872 x 973 km, 66.8° (Epoch: 27 January)

Event Time Altitude Azimuth Distance (km) Brightness Sun altitude
Rises 15:57:48 0° 227° (SW) 3,584 12.9 -7.8°
Reaches altitude 10° 16:00:22 10° 230° (SW) 2,628 11.9 -8.1°
Maximum altitude 16:06:28 72° 315° (NW) 957 8.1 -8.9°
Drops below altitude 10° 16:12:26 10° 40° (NE) 2,572 9.6 -9.6°
Enters shadow 16:12:33 - 40° (NE) 2,615 9.7 -9.7°
